Home > Weather > Annapolis > Past weeks

Flag for USA Past Weather in Annapolis, Maryland, USA — Yesterday and Last 2 Weeks

Now
79 °F

Clear.


Feels Like: 82 °F
Forecast: 80 / 96 °F
Wind: No wind

Location: Annapolis - United States Naval Academy

Current Time: Jul 25, 2016 at 6:07:25 AM

Latest Report: Jul 25, 2016 at 4:54 AM


Visibility: 10 mi

Pressure: 29.93 "Hg

Humidity: 82%

Dew Point: 73 °F

Location of AnnapolisLocation

Past Weather in Annapolis — Graph

°F

Annapolis Temperature Yesterday

Maximum temperature yesterday: 89 °F (at 3:54 PM)
Minimum temperature yesterday: 78 °F (at 3:54 AM)
Average temperature yesterday: 85 °F

High & Low Weather Summary for the Past Weeks

 TemperatureHumidityPressure
High95 °F (Jul 23, 2:54 PM)96% (Jul 14, 4:54 AM)30.21 "Hg (Jul 14, 4:54 AM)
Low70 °F (Jul 20, 4:54 AM)43% (Jul 17, 4:54 PM)29.84 "Hg (Jul 14, 4:54 PM)
Average81 °F71%30.03 "Hg
* Reported Jul 10 4:54 AM — Jul 25 4:54 AM, Annapolis, Weather by CustomWeather, © 2016

Note: Actual official high and low records may vary slightly from our data, if they occured in-between our weather recording intervals... More about our weather records

Advertising

Annapolis Weather History for the Previous 24 Hours

Scroll right to see more
 ConditionsComfort  
Time TempWeatherWind HumidityBarometerVisibility
4:54 AM
Mon, Jul 25
79 °FClear.No wind82%29.93 "Hg10 mi
3:54 AM81 °FClear.6 mph77%29.95 "Hg10 mi
2:54 AM81 °FClear.7 mph77%29.95 "Hg10 mi
1:54 AM80 °FPassing clouds.5 mph71%29.96 "Hg10 mi
1:04 AM85 °FMostly cloudy.7 mph86%29.96 "Hg8 mi
11:54 PM
Sun, Jul 24
86 °FPassing clouds.6 mph80%29.96 "Hg10 mi
10:54 PM86 °FClear.12 mph80%29.96 "Hg9 mi
9:54 PM86 °FClear.8 mph75%29.97 "Hg10 mi
8:54 PM87 °FSunny.6 mph59%29.96 "Hg10 mi
7:54 PM87 °FSunny.7 mph59%29.95 "Hg10 mi
6:54 PM88 °FSunny.7 mph61%29.94 "Hg10 mi
5:54 PM88 °FSunny.7 mph61%29.95 "Hg10 mi
4:54 PM89 °FSunny.8 mph57%29.95 "Hg10 mi
3:54 PM89 °FSunny.9 mph55%29.97 "Hg10 mi
2:54 PM88 °FSunny.7 mph57%29.98 "Hg10 mi
1:54 PM88 °FSunny.7 mph55%29.99 "Hg10 mi
12:54 PM88 °FSunny.No wind50%30.01 "Hg10 mi
11:54 AM87 °FSunny.3 mph50%30.00 "Hg10 mi
10:54 AM86 °FSunny.5 mph51%29.99 "Hg10 mi
9:54 AM86 °FSunny.3 mph59%29.99 "Hg10 mi
8:54 AM84 °FSunny.5 mph67%29.99 "Hg10 mi
7:54 AM83 °FSunny.No wind63%29.99 "Hg10 mi
6:54 AM80 °FClear.7 mph76%29.96 "Hg10 mi
Weather by CustomWeather, © 2016

See weather overviewHow to use our weather pages